Wind_Speed
17 18 19 18 19 20 21 21 21 22 22 23 24 24 25 26 26 27 27 27 29 30 31 32 32 33 33 34 34 34 35 35 36 37 37 36 36 36
18 18 19 19 20 21 21 22 22 23 23 24 24 25 26 26 26 26 27 27 28 29 30 31 32 33 33 33 34 34 35 35 36 37 38 37 37 37
19 19 19 20 21 22 22 22 24 24 24 25 26 26 26 26 26 26 27 28 28 29 30 30 31 32 33 33 33 34 34 35 36 37 38 38 38 39
18 19 19 20 21 22 23 23 24 25 25 26 27 27 26 26 26 26 27 28 29 29 29 30 30 31 32 32 32 33 34 34 35 36 37 37 37 39
18 19 19 20 21 22 22 23 23 24 25 26 26 27 27 27 27 27 27 28 29 29 29 30 30 30 31 31 32 33 33 34 35 36 37 37 37 38
19 20 20 21 21 22 22 22 23 24 24 25 26 26 27 27 26 27 27 27 28 28 29 29 29 30 30 31 31 33 33 34 35 36 37 37 37 38
20 20 21 22 22 21 21 22 22 23 24 25 25 25 26 26 26 26 26 26 26 26 27 28 29 29 30 31 32 32 33 33 34 35 36 36 37 38
21 22 22 22 22 21 21 21 22 22 22 23 23 23 24 24 25 25 26 26 26 26 27 28 28 29 30 31 32 33 34 34 34 35 35 36 37 37
22 23 23 23 22 22 21 20 20 20 21 21 21 21 21 22 23 24 24 24 24 24 25 26 27 27 29 30 31 32 33 34 34 35 36 36 36 36
22 22 22 22 21 20 20 19 19 19 19 20 20 20 21 21 22 22 22 22 23 23 24 24 25 26 27 28 29 30 31 32 33 34 36 36 36 36
21 21 21 21 21 20 19 20 20 20 19 19 19 19 19 20 20 21 21 22 22 22 22 23 24 25 25 26 27 27 28 29 31 32 33 34 35 36
21 21 21 21 21 20 20 20 19 19 19 19 19 19 19 19 19 19 19 19 20 20 21 22 23 24 24 25 25 26 27 28 29 30 31 33 34 35
21 22 22 21 20 19 20 20 20 19 18 18 18 19 19 19 18 19 19 19 19 19 20 20 21 22 22 23 24 25 26 27 29 30 31 32 33 34
22 22 22 22 21 20 20 20 19 19 18 18 18 18 18 18 18 18 18 19 20 20 20 20 21 21 22 22 23 23 25 26 27 29 30 31 32 33
23 22 21 22 22 21 21 20 20 20 20 19 19 19 18 18 18 18 19 20 20 20 20 20 20 21 22 23 23 24 25 26 27 28 29 30 31 32
22 22 22 22 22 21 20 20 20 19 19 19 19 19 18 18 18 18 19 19 19 20 20 20 21 21 21 22 23 24 25 26 27 28 28 29 29 30
22 22 22 22 22 21 20 20 20 20 20 20 19 18 18 18 19 19 19 18 18 18 18 19 20 21 21 22 23 24 24 25 27 28 29 29 29 29
22 22 22 22 21 20 20 19 19 19 19 18 18 18 19 19 19 19 19 18 17 17 18 19 20 20 21 21 23 23 24 24 25 26 27 27 27 28
22 22 22 21 20 20 20 20 19 19 19 19 19 18 19 19 19 19 18 19 19 19 19 19 20 21 22 22 22 23 22 22 22 23 23 23 24 25
22 21 20 20 20 20 20 20 20 19 19 19 19 19 19 19 19 19 19 19 19 19 20 20 21 21 21 21 20 20 20 20 21 21 22 23 23 24
22 21 20 20 20 20 21 20 20 20 20 19 19 19 19 19 19 19 19 18 18 19 20 20 20 20 19 19 19 19 19 19 20 20 21 22 23 24
22 21 21 20 20 20 21 21 21 21 20 20 20 20 20 20 19 19 19 19 19 19 19 19 19 19 18 18 18 19 19 19 19 20 20 21 21 22
22 22 21 21 21 21 21 22 22 21 21 21 21 20 20 20 19 19 19 19 19 19 19 19 19 19 19 18 19 19 19 19 19 19 19 19 19 20
Wind_Direction
290 289 288 284 281 280 279 279 276 275 275 275 275 275 274 274 274 274 271 267 263 260 259 258 258 256 255 255 253 252 251 250 248 246 246 246 246 247
293 290 288 287 283 282 281 280 279 278 276 276 277 277 275 274 274 274 271 269 266 262 260 259 258 257 257 255 253 253 252 250 247 246 246 246 247 247
296 293 291 289 286 284 283 282 279 277 276 276 277 276 276 275 274 273 272 271 267 263 261 259 259 258 258 256 254 252 250 250 248 247 247 247 247 247
300 299 298 296 293 290 287 284 280 278 277 277 277 275 275 275 274 274 272 271 268 265 263 260 259 259 258 256 254 251 250 249 249 248 248 248 248 248
304 301 302 300 297 294 290 287 283 280 280 279 278 276 275 275 274 274 273 270 268 266 264 261 259 258 257 256 254 253 252 252 251 250 249 249 249 248
305 303 302 303 301 296 292 289 285 283 281 282 280 278 278 278 276 275 274 271 268 266 264 261 258 257 257 257 256 254 253 253 252 251 250 250 250 251
306 305 302 304 304 300 295 291 288 286 284 284 282 280 279 278 278 276 275 274 271 270 266 264 261 260 258 257 257 255 255 254 254 253 252 253 253 253
307 307 305 303 304 302 297 293 289 287 285 285 283 283 281 280 277 277 277 275 273 271 269 267 265 263 262 261 259 257 256 255 254 253 253 254 254 255
306 307 307 306 304 303 301 298 296 293 289 287 286 285 283 283 281 279 278 277 274 273 271 269 267 266 264 263 261 259 257 256 254 254 254 255 256 255
307 308 308 309 308 305 303 303 302 300 296 293 291 288 286 284 283 280 277 275 274 273 272 271 268 267 267 266 263 261 259 258 257 255 254 255 255 255
308 309 308 308 307 306 304 304 303 302 300 298 295 292 291 290 287 281 278 276 275 274 273 272 268 267 266 265 264 262 260 260 260 259 257 256 256 255
307 308 308 306 305 303 303 304 304 302 301 299 298 295 293 292 289 284 280 277 277 276 273 274 270 268 266 265 264 264 262 261 260 259 258 258 259 258
306 307 307 306 304 302 302 303 303 301 300 300 300 298 295 294 291 285 283 281 280 277 275 275 273 270 267 265 266 266 266 265 263 261 259 259 260 261
307 308 308 307 305 302 300 301 301 301 301 301 301 301 300 295 292 287 284 283 282 280 278 277 275 272 269 266 267 267 267 265 265 264 263 262 261 261
308 308 306 306 304 302 301 299 298 299 300 300 301 302 300 297 294 291 286 285 283 280 279 277 276 274 271 270 269 269 268 267 267 266 265 264 262 261
308 308 307 304 303 301 300 300 300 301 300 300 302 302 302 299 297 295 294 291 285 281 277 276 279 279 276 276 275 274 272 269 267 265 265 265 264 263
308 308 308 306 303 300 300 300 300 300 300 301 301 302 302 300 297 295 293 291 290 288 285 282 282 283 281 280 279 278 276 273 270 268 266 265 264 263
306 308 308 306 304 301 299 301 301 300 300 300 300 300 301 301 299 298 295 291 290 290 289 287 286 287 287 286 285 284 282 279 275 272 270 267 264 264
306 306 306 305 304 302 300 300 300 299 298 297 297 300 302 301 302 301 299 295 291 291 291 290 290 290 290 288 287 288 286 282 278 275 273 270 269 268
307 307 305 303 302 303 301 299 299 297 297 297 297 299 301 301 302 302 300 297 293 291 290 290 291 291 291 291 289 289 287 284 280 276 273 271 270 269
306 305 304 303 301 300 300 300 300 298 297 297 297 298 300 301 302 303 302 299 296 295 294 293 292 292 292 293 293 291 289 286 284 282 277 273 273 271
304 302 302 302 302 301 300 300 299 297 296 297 297 298 299 300 300 300 301 299 297 299 298 297 295 293 293 294 295 294 290 288 288 287 283 279 278 274
304 303 302 302 304 303 301 300 300 298 297 296 297 298 298 299 299 299 299 298 297 298 298 297 294 291 291 291 292 292 290 290 291 289 284 281 279 279
Height
5768 5767 5765 5763 5762 5761 5760 5759 5758 5758 5758 5757 5757 5756 5756 5755 5755 5754 5754 5754 5754 5755 5756 5757 5759 5760 5762 5763 5765 5767 5769 5771 5774 5776 5779 5782 5785 5787
5764 5762 5760 5758 5756 5755 5754 5753 5752 5751 5751 5751 5750 5749 5749 5748 5748 5747 5746 5746 5746 5747 5747 5749 5750 5751 5753 5754 5756 5758 5760 5762 5764 5767 5769 5772 5775 5778
5758 5756 5754 5752 5751 5749 5748 5746 5745 5745 5744 5743 5742 5742 5741 5741 5740 5739 5738 5738 5738 5738 5739 5740 5741 5742 5744 5745 5747 5748 5750 5752 5755 5757 5759 5762 5765 5768
5753 5751 5749 5747 5745 5743 5741 5739 5738 5737 5737 5736 5735 5734 5734 5733 5732 5731 5731 5730 5730 5730 5730 5731 5732 5733 5734 5736 5737 5739 5741 5743 5745 5747 5750 5752 5755 5757
5748 5746 5743 5741 5739 5736 5734 5732 5731 5730 5729 5728 5727 5726 5726 5725 5724 5724 5723 5722 5722 5722 5722 5722 5723 5724 5725 5727 5728 5730 5732 5734 5736 5738 5740 5742 5744 5747
5743 5741 5738 5736 5733 5730 5728 5726 5724 5723 5722 5721 5720 5719 5718 5716 5716 5715 5715 5714 5713 5713 5713 5714 5714 5715 5716 5718 5719 5721 5723 5724 5726 5728 5730 5732 5734 5736
5739 5736 5733 5730 5727 5724 5722 5719 5718 5716 5715 5713 5712 5711 5710 5709 5708 5707 5707 5706 5705 5705 5705 5706 5706 5707 5707 5709 5710 5711 5713 5715 5716 5718 5720 5722 5724 5726
5734 5731 5728 5725 5722 5719 5716 5714 5712 5710 5708 5706 5705 5704 5703 5701 5700 5699 5698 5698 5698 5698 5697 5697 5697 5698 5699 5700 5701 5702 5703 5705 5706 5708 5710 5712 5713 5715
5728 5725 5722 5719 5717 5714 5711 5709 5706 5704 5702 5700 5698 5697 5695 5694 5693 5692 5691 5690 5690 5689 5689 5689 5689 5689 5690 5690 5691 5692 5693 5695 5697 5698 5700 5702 5703 5705
5723 5720 5717 5714 5711 5709 5706 5704 5701 5699 5697 5694 5693 5691 5689 5687 5686 5685 5684 5683 5683 5682 5681 5681 5681 5681 5681 5681 5682 5683 5684 5685 5686 5688 5689 5691 5693 5694
5718 5715 5712 5709 5706 5704 5701 5699 5696 5694 5691 5689 5687 5685 5684 5682 5680 5679 5678 5677 5676 5675 5674 5674 5674 5673 5673 5673 5673 5674 5675 5676 5677 5678 5679 5681 5682 5683
5713 5710 5707 5704 5701 5699 5696 5694 5692 5689 5686 5684 5682 5680 5678 5676 5674 5673 5672 5671 5670 5669 5668 5667 5667 5666 5666 5666 5666 5666 5666 5667 5668 5669 5670 5671 5672 5673
5707 5705 5702 5699 5696 5693 5691 5689 5686 5684 5681 5679 5677 5674 5672 5671 5669 5667 5666 5665 5664 5663 5662 5661 5660 5659 5659 5659 5659 5659 5659 5659 5659 5660 5661 5662 5663 5663
5702 5699 5696 5693 5691 5688 5686 5683 5681 5678 5676 5674 5672 5669 5667 5665 5663 5662 5660 5659 5658 5657 5655 5654 5654 5653 5652 5652 5652 5652 5651 5651 5651 5651 5651 5652 5653 5653
5696 5693 5690 5688 5685 5683 5680 5678 5675 5673 5671 5669 5666 5664 5662 5660 5658 5656 5654 5653 5651 5650 5649 5648 5647 5646 5646 5645 5645 5644 5643 5642 5642 5642 5642 5642 5642 5643
5690 5687 5684 5682 5679 5677 5674 5672 5670 5668 5665 5663 5661 5659 5657 5654 5652 5650 5648 5646 5645 5644 5643 5641 5640 5639 5639 5638 5637 5636 5635 5634 5633 5633 5632 5632 5632 5632
5684 5681 5678 5676 5673 5671 5668 5666 5664 5662 5660 5658 5656 5653 5651 5649 5647 5645 5643 5641 5639 5638 5636 5635 5634 5632 5631 5630 5629 5628 5626 5625 5623 5623 5622 5622 5622 5622
5679 5675 5672 5670 5667 5665 5663 5661 5659 5657 5654 5652 5650 5648 5646 5644 5641 5639 5637 5635 5633 5632 5630 5629 5627 5626 5624 5623 5621 5619 5617 5615 5614 5613 5612 5612 5612 5612
5673 5670 5667 5664 5661 5659 5657 5655 5653 5651 5649 5647 5645 5643 5641 5638 5636 5633 5631 5629 5627 5625 5624 5622 5621 5619 5617 5615 5613 5610 5608 5606 5605 5604 5604 5604 5604 5604
5667 5664 5661 5658 5656 5654 5652 5650 5647 5645 5643 5641 5639 5637 5635 5633 5630 5628 5626 5623 5621 5619 5618 5616 5614 5612 5610 5608 5606 5603 5601 5599 5598 5597 5596 5595 5595 5595
5661 5658 5656 5653 5651 5648 5646 5644 5642 5639 5637 5635 5633 5631 5629 5627 5625 5622 5620 5618 5615 5613 5611 5610 5608 5605 5603 5601 5599 5597 5595 5593 5591 5590 5589 5588 5587 5586
5656 5653 5650 5648 5645 5643 5640 5638 5635 5633 5631 5629 5627 5625 5623 5621 5619 5616 5614 5612 5610 5607 5605 5603 5601 5599 5597 5595 5593 5591 5589 5587 5585 5583 5582 5581 5579 5578
5650 5647 5645 5642 5639 5637 5634 5631 5629 5627 5624 5622 5620 5618 5616 5614 5612 5610 5608 5606 5604 5601 5599 5597 5595 5593 5591 5589 5587 5585 5583 5581 5579 5577 5576 5574 5573 5572